Regional Weather Roundup
Issued by NWS Grand Forks, ND

Home | Current Version | Previous Version | Graphics & Text | Print | Product List | Glossary On
Versions: 1 2 3 4 5 6 7 8 9 10 11 12 13 14 15 16 17 18 19 20 21 22 23 24 25 26 27 28 29 30 31 32 33 34 35 36 37 38 39 40 41 42 43 44 45 46 47 48 49 50
000
ASUS43 KFGF 252331
RWRFGF
PRAIRIE TO PINES  WEATHER ROUNDUP
NATIONAL WEATHER SERVICE EASTERN NORTH DAKOTA/GRAND FORKS ND
600 PM CDT SAT OCT 25 2014

 **SATELLITE DATA USED TO AUGMENT SKY COVER AT AUTOMATED STATIONS**
 *****  WEATHER ACROSS EASTERN NORTH DAKOTA  *****

CITY           SKY/WX    TMP DP  RH WIND       PRES   REMARKS
GRAND FORKS    CLEAR     56  27  32 W5        30.03F
GRAND FRKS AFB CLEAR     56  27  33 W6        30.04F
GRAND FRKS NWS   N/A     52 N/A N/A W3          N/A
DEVILS LAKE    CLEAR     55  30  38 W6        30.02F
FARGO          CLEAR     56  26  31 NW5       30.06F
WAHPETON ARPT  CLEAR     55  18  22 N6        30.07F
$$

 ***** WEATHER ACROSS CENTRAL AND WESTERN NORTH DAKOTA  *****

CITY           SKY/WX    TMP DP  RH WIND       PRES   REMARKS
BISMARCK       CLEAR     60  29  30 SE8       30.03F
MINOT          CLEAR     58  28  32 S7        30.00F
JAMESTOWN      CLEAR     57  26  30 N3        30.06F
MINOT AFB      CLEAR     57  30  35 SE6       30.00F
GARRISON         N/A     58  32  37 E5        30.01F
WILLISTON      CLEAR     62  31  31 SE13      29.94F
DICKINSON      CLEAR     61  32  33 SE13      29.96F
HETTINGER      CLEAR     62  31  31 SE15      29.99F
$$

 *****  OTHER AIRPORT OBSERVATIONS IN OUR AREA  *****

CITY           SKY/WX    TMP DP  RH WIND       PRES   REMARKS
WALHALLA         N/A     55  25  30 NW3       30.01S
GRAFTON AIRPOR FAIR      55  27  33 NW6       30.01F
VALLEY CITY AR FAIR      54  27  35 CALM      30.06F
CANDO          FAIR      48  27  43 W7        30.03F
CAVALIER APRT  FAIR      55  23  28 NW10      30.01S
GWINNER        CLEAR     57  30  35 NE5       30.08F
ROLLA          FAIR      50  23  34 SW6       30.03F
 ***** THE ABOVE OBSERVATIONS ARE NON NWS ARE NOT QUALITY
       CONTROLLED AND MAY MIS-REPORT RAIN FOR SNOW...
$$

  *****  WEATHER ACROSS NORTHERN MINNESOTA  *****

CITY           SKY/WX    TMP DP  RH WIND       PRES   REMARKS
FLAG ISLAND    CLEAR     52  30  43 NW15      29.95S
WARROAD        CLEAR     52  28  40 W7        29.99S
ROSEAU         CLEAR     52  28  40 W6        29.99S
HALLOCK        CLEAR     55  21  26 NW9       30.00F
THF RVR FALLS  CLEAR     54  23  30 W6        30.03S
BAUDETTE       CLEAR     52  26  36 NW12G22   29.97S
WASKISH        CLEAR     50  36  57 CALM      30.00S
CROOKSTON      CLEAR     54  27  35 W9        30.04F
STEPHEN NDAWN    N/A     57  27  30 NW5         N/A
GREENBUSH NDAW   N/A     55  25  30 W12         N/A
$$
  *****  WEATHER ACROSS CENTRAL AND WEST MINNESOTA  *****

CITY           SKY/WX    TMP DP  RH WIND       PRES   REMARKS
FOSSTON        CLEAR     50  27  40 W6        30.05S
BEMIDJI        CLEAR     49  23  36 W9        30.02S
PARK RAPIDS    CLEAR     53  21  28 NW12      30.04S
ELBOW LAKE     FAIR      53  30  41 NW7       30.07S
WADENA         CLEAR     52  28  40 W5        30.06S
DETROIT LAKES  CLEAR     52  27  37 NW6       30.07S
MOORHEAD       CLEAR     55  12  18 NW5       30.07F
FERGUS FALLS   CLEAR     54  21  28 NW6       30.08S
MORRIS MN      CLEAR     54  27  35 NW3       30.07F
STAPLES        CLEAR     48  28  46 W6        30.05S
$$
  *****  WEATHER ELSEWHERE ACROSS MINNESOTA  *****

CITY           SKY/WX    TMP DP  RH WIND       PRES   REMARKS
DULUTH         CLEAR     53  25  33 W17G25    29.95R
INTRNTL FALLS  CLEAR     50  28  42 W12G22    29.94R
ELY            CLEAR     48  23  37 NW14G25   29.91R
CLOQUET        CLEAR     54  19  26 W14       29.97S
WHEATON        CLEAR     54  27  35 CALM      30.09F
BRAINERD       CLEAR     55  23  28 NW13      30.04S
HIBBING        CLEAR     53  24  32 W15G22    29.96R
ALEXANDRIA     CLEAR     55  25  31 NW7       30.08S
SAINT CLOUD    CLEAR     58  27  30 NW12      30.05S
MINNEAPOLIS    CLEAR     59  24  26 NW14      30.04R
$$

  *****  WEATHER ACROSS SOUTH DAKOTA  *****

CITY           SKY/WX    TMP DP  RH WIND       PRES   REMARKS
SIOUX FALLS    CLEAR     59  39  47 NE7       30.07F
BROOKINGS      NOT AVBL
WATERTOWN      CLEAR     57  31  37 N6        30.09S
HURON          CLEAR     64  29  26 NE6       30.07F
SISSETON         N/A     59  27  29 N5        30.07F
ABERDEEN       CLEAR     64  29  26 CALM      30.08F
MITCHELL       CLEAR     64  36  35 NE5       30.07F
PIERRE         CLEAR     65  30  27 E10       30.02F
MOBRIDGE       CLEAR     65  31  28 SE6       30.02F
RAPID CITY     CLEAR     64  38  38 S12       29.97F
$$

  *****  SOME WEATHER IN NEARBY STATES *****

CITY           SKY/WX    TMP DP  RH WIND       PRES   REMARKS
GLASGOW MT     PTCLDY    65  32  29 SE22      29.81F
GREAT FALLS MT CLOUDY    55  43  63 SE3       29.71F
CHEYENNE WY    SUNNY     70  20  15 S14       30.12F
SCOTTSBLUFF NE CLEAR     74  35  24 SE13      30.00F
OMAHA NE       CLEAR     70  42  36 NE6       30.04F
DES MOINES IA  CLEAR     68  35  29 N6        30.06S
DAVENPORT IA   CLEAR     64  32  30 NW10      30.02R
CHICAGO IL     CLEAR     66  26  22 W13       29.91S
EAU CLAIRE WI  CLEAR     58  25  28 W13       29.97S
LA CROSSE WI   CLEAR     60  30  32 NW13      29.99R
$$

  *****  SOME NATIONAL WEATHER *****

CITY           SKY/WX    TMP DP  RH WIND       PRES   REMARKS
LA GUARDIA NY  PTCLDY    65  43  44 SW7       29.64S
RALEIGH NC     PTCLDY    60  46  59 SW3       29.91S
ATLANTA GA     PTCLDY    69  45  41 NW8       30.02R
NEW ORLEANS LA CLEAR     75  56  51 NW7       30.06F
OKLAHOMA CITY  CLEAR     87  56  34 S8        30.02F
ALBUQUERQUE NM SUNNY     78  31  17 S8        30.19F
SALT LAKE CITY PTSUNNY   76  32  20 S18G30    29.92F
LOS ANGELES CA MOSUNNY   72  61  68 W16       30.00F
BOISE ID       MOSUNNY   65  47  52 NE5       29.76S
SEATTLE WA     LGT RAIN  58  51  78 S9        29.30F
$$

*** WEATHER ACROSS MANITOBA...SASKATCHEWAN AND ONTARIO ***
                ***ONTARIO***

CITY           SKY/WX    TMP DP  RH WIND       PRES   REMARKS
GERALDTON      MOCLDY    43  32  65 NW23G29   29.63R
THUNDER BAY    PTCLDY    52  30  43 NW15G29   29.77R
SIOUX LOOKOUT  PTCLDY    46  30  53 NW10G24   29.85R
TORONTO        PTCLDY    55  43  62 SW9       29.60S
BIG TROUT LK   CLOUDY    37  34  87 W18G30    29.67R
PICKLE LAKE    CLOUDY    39  30  70 W13G22    29.76R
DRYDEN         CLEAR     46  27  46 NW14G23   29.88R
KENORA         PTCLDY    50  28  43 NW10      29.93R
$$
                *** MANITOBA***

CITY           SKY/WX    TMP DP  RH WIND       PRES   REMARKS
BRANDON        MOCLDY    54  27  35 W9        30.00F
DAUPHIN        CLEAR     52  28  40 W12       29.96F
ISLAND LAKE    CLOUDY    39  30  70 W21       29.83R
PILOT MOUND      N/A     54  25  32 W6          N/A
THE PAS        PTCLDY    37  28  70 W9        29.94F
THOMPSON       MOCLDY    39  30  70 W12G20    29.81R
WINNIPEG       PTCLDY    50  30  46 NW9       29.99S
LYNN LAKE      CLOUDY    36  30  80 W13G20    29.84S
CHURCHILL      FLURRIES  34  34 100 NW18G26   29.61R WCI  23
GILLAM         MOCLDY    39  34  81 W20G36    29.69R
$$
                ***SASKATCHEWAN***

CITY           SKY/WX    TMP DP  RH WIND       PRES   REMARKS
ESTEVAN        MOCLDY    52  30  43 E6        29.97F
KINDERSLEY     MOCLDY    46  28  49 E18       29.81F
LLOYDMINSTER   MOCLDY    45  25  45 E13       29.84F
PRINCE ALBERT  MOCLDY    41  30  65 NE2       29.95F
REGINA         MOCLDY    52  32  46 SE8       29.94F
YORKTON        CLEAR     48  27  43 NW5       29.98F
N. BATTLEFORD  CLEAR     45  27  49 E8        29.91F
LA RONGE       MOCLDY    39  27  60 VRB2      29.96F
SASKATOON      MOCLDY    45  27  49 E7        29.93F
SWIFT CURRENT  CLEAR     52  27  37 E17G26    29.80F
$$
NOTE: THESE ARE AUTOMATED STATIONS WITH LIMITED QUALITY CONTROL
      "FAIR" INDICATES FEW OR NO CLOUDS BELOW 12,000 FEET WITH NO
      SIGNIFICANT WEATHER AND/OR OBSTRUCTIONS TO VISIBILITY.
      SKY/WX - SKY CONDITION AND SIGNIFICANT WEATHER.
      TMP - AIR TEMPERATURE.    DP   - DEWPOINT TEMPERATURE.
      RH  - RELATIVE HUMIDITY.  PRES - PRESSURE.
      HX  - HEAT INDEX.         WCI  - WIND CHILL INDEX.
$



USA.gov is the U.S. government's official web portal to all federal, state and local government web resources and services.